KC3BAN-13 Weather Reports


Display with metric or nautical units.
time (UTC)temp
F
wind
direction
speed
MPH
gust
MPH
rain 1hr
in
rain 24hr
in
rain mn
in
humidity
%
barometer
mb
20260904010918 80 214 0.0 1.0 0.00 0.00 0.00 80 1006.3
20260904010412 80 214 0.0 1.0 0.00 0.00 0.00 81 1006.5
20260904005906 81 214 0.0 2.0 0.00 0.00 0.00 81 1006.5
20260904005622 81 227 0.0 3.0 0.00 0.00 0.00 81 1006.7
20260904004850 81 235 1.0 3.0 0.00 0.00 0.00 80 1006.7
20260904004345 81 224 0.0 3.0 0.00 0.00 0.00 80 1006.8
20260904003838 81 179 0.0 2.0 0.00 0.00 0.00 81 1006.8
20260904003332 81 188 0.0 4.0 0.00 0.00 0.00 81 1006.7
20260904002826 81 195 0.0 4.0 0.00 0.00 0.00 81 1006.8
20260904002320 81 213 0.0 2.0 0.00 0.00 0.00 81 1006.9
20260904001814 81 232 0.0 1.0 0.00 0.00 0.00 81 1006.8
20260904001531 81 160 0.0 0.0 0.00 0.00 0.00 82 1006.7
20260904000803 81 160 0.0 1.0 0.00 0.00 0.00 82 1006.7
20260904000256 81 160 0.0 1.0 0.00 0.00 0.00 82 1006.5
20260903235750 81 252 0.0 1.0 0.00 0.00 0.00 83 1006.4
20260903235244 82 252 0.0 0.0 0.00 0.00 0.00 83 1006.4
20260903234738 82 252 0.0 0.0 0.00 0.00 0.00 83 1006.3
20260903234232 82 252 0.0 3.0 0.00 0.00 0.00 83 1006.1
20260903233726 82 252 0.0 3.0 0.00 0.00 0.00 83 1006.0
20260903233220 82 255 0.0 3.0 0.00 0.00 0.00 83 1006.0
20260903232714 83 214 0.0 1.0 0.00 0.00 0.00 82 1006.0
20260903232208 83 214 0.0 1.0 0.00 0.00 0.00 82 1006.1
20260903231702 83 214 0.0 0.0 0.00 0.00 0.00 81 1006.1
20260903231156 84 214 0.0 0.0 0.00 0.00 0.00 80 1006.0
20260903230652 84 214 0.0 0.0 0.00 0.00 0.00 79 1006.0
20260903230152 85 214 0.0 0.0 0.00 0.00 0.00 79 1006.0
20260903225650 85 214 0.0 0.0 0.00 0.00 0.00 78 1006.0
20260903225416 86 214 0.0 0.0 0.00 0.00 0.00 77 1005.9
20260903224646 87 214 0.0 0.0 0.00 0.00 0.00 77 1005.8
20260903224144 87 214 0.0 1.0 0.00 0.00 0.00 76 1005.9
20260903223643 87 214 0.0 1.0 0.00 0.00 0.00 75 1005.9
20260903223144 87 226 0.0 3.0 0.00 0.00 0.00 75 1005.9
20260903222643 88 225 0.0 3.0 0.00 0.00 0.00 73 1005.8
20260903222144 88 240 0.0 4.0 0.00 0.00 0.00 73 1005.7
20260903221643 89 222 1.0 4.0 0.00 0.00 0.00 71 1005.8
20260903221143 89 223 0.0 4.0 0.00 0.00 0.00 70 1005.8
20260903220643 90 224 0.0 4.0 0.00 0.00 0.00 69 1005.9
20260903220143 91 273 0.0 4.0 0.00 0.00 0.00 68 1005.9
20260903215644 91 210 0.0 4.0 0.00 0.00 0.00 67 1005.8
20260903215143 91 222 1.0 5.0 0.00 0.00 0.00 67 1006.0
20260903214641 91 238 1.0 5.0 0.00 0.00 0.00 67 1005.9
20260903213640 91 255 1.0 5.0 0.00 0.00 0.00 68 1005.9
20260903213140 91 315 1.0 7.0 0.00 0.00 0.00 70 1005.9
20260903212640 92 267 1.0 7.0 0.00 0.00 0.00 68 1005.9
20260903212140 92 122 1.0 5.0 0.00 0.00 0.00 67 1006.0
20260903211640 92 217 1.0 5.0 0.00 0.00 0.00 66 1006.0
20260903211401 93 226 0.0 4.0 0.00 0.00 0.00 68 1006.0
20260903210640 93 225 0.0 4.0 0.00 0.00 0.00 69 1006.1
20260903210356 93 305 0.0 2.0 0.00 0.00 0.00 66 1006.0
20260903205635 92 305 0.0 3.0 0.00 0.00 0.00 68 1006.0
20260903205135 92 306 1.0 4.0 0.00 0.00 0.00 65 1006.1
20260903204635 92 225 1.0 4.0 0.00 0.00 0.00 65 1006.1
20260903204135 92 215 0.0 2.0 0.00 0.00 0.00 66 1006.1
20260903203635 92 215 0.0 4.0 0.00 0.00 0.00 66 1006.1
20260903203135 91 219 1.0 4.0 0.00 0.00 0.00 65 1006.2
20260903202635 91 247 1.0 8.0 0.00 0.00 0.00 64 1006.4
20260903202135 91 273 2.0 8.0 0.00 0.00 0.00 64 1006.3
20260903201636 91 204 1.0 5.0 0.00 0.00 0.00 64 1006.4
20260903201136 91 201 0.0 5.0 0.00 0.00 0.00 65 1006.5
20260903200905 90 258 0.0 3.0 0.00 0.00 0.00 67 1006.6
20260903200135 89 233 1.0 3.0 0.00 0.00 0.00 71 1006.7
20260903195635 88 167 1.0 5.0 0.00 0.00 0.00 69 1006.9
20260903195135 88 207 1.0 5.0 0.00 0.00 0.00 68 1006.9
20260903194636 88 205 1.0 4.0 0.00 0.00 0.00 69 1007.0
20260903194400 88 199 1.0 4.0 0.00 0.00 0.00 67 1007.0
20260903193636 89 181 1.0 7.0 0.00 0.00 0.00 67 1007.1
20260903193135 89 181 1.0 7.0 0.00 0.00 0.00 66 1007.2
20260903192635 89 184 1.0 3.0 0.00 0.00 0.00 66 1007.3
20260903192135 88 167 1.0 3.0 0.00 0.00 0.00 67 1007.3
20260903191635 88 172 1.0 5.0 0.00 0.00 0.00 64 1007.4
20260903191354 89 154 2.0 8.0 0.00 0.00 0.00 65 1007.4
20260903190635 88 30 2.0 8.0 0.00 0.00 0.00 68 1007.4
20260903190134 88 177 1.0 6.0 0.00 0.00 0.00 67 1007.4
20260903185634 88 189 2.0 6.0 0.00 0.00 0.00 69 1007.4
20260903185134 87 143 2.0 6.0 0.00 0.00 0.00 66 1007.7
20260903184626 88 86 1.0 6.0 0.00 0.00 0.00 66 1007.8
20260903184346 88 233 2.0 6.0 0.00 0.00 0.00 67 1007.8
20260903183614 89 200 2.0 7.0 0.00 0.00 0.00 65 1007.7
20260903183115 89 207 1.0 7.0 0.00 0.00 0.00 66 1007.6
20260903182615 89 193 1.0 3.0 0.00 0.00 0.00 67 1007.4
20260903182115 88 141 1.0 7.0 0.00 0.00 0.00 71 1007.3
20260903181613 87 27 1.0 7.0 0.00 0.00 0.00 70 1007.5
20260903181113 87 275 1.0 6.0 0.00 0.00 0.00 73 1007.7
20260903180613 86 181 2.0 7.0 0.00 0.00 0.00 72 1007.8
20260903180112 86 197 2.0 8.0 0.00 0.00 0.00 72 1007.9
20260903175610 85 154 2.0 8.0 0.00 0.00 0.00 74 1007.9
20260903175110 85 291 2.0 6.0 0.00 0.00 0.00 77 1008.0
20260903174609 84 241 2.0 8.0 0.00 0.00 0.00 79 1008.1
20260903174110 83 218 2.0 8.0 0.00 0.00 0.00 79 1008.1
20260903173833 83 229 2.0 7.0 0.00 0.00 0.00 82 1008.2
20260903173107 83 307 2.0 7.0 0.00 0.00 0.00 83 1008.2
20260903172836 82 168 1.0 6.0 0.00 0.00 0.00 83 1008.4
20260903172107 82 203 2.0 5.0 0.00 0.00 0.00 83 1008.3
20260903171606 82 209 2.0 6.0 0.00 0.00 0.00 83 1008.6
20260903171103 82 188 1.0 6.0 0.00 0.00 0.00 83 1008.7
20260903170601 81 181 1.0 4.0 0.00 0.00 0.00 83 1008.8
20260903165555 81 204 1.0 6.0 0.00 0.00 0.00 82 1008.8
20260903165050 81 217 1.0 5.0 0.00 0.00 0.00 82 1008.8
20260903164542 80 212 1.0 7.0 0.00 0.00 0.00 81 1009.0
20260903164037 80 216 1.0 3.0 0.00 0.00 0.00 81 1009.1
20260903163530 80 226 1.0 3.0 0.00 0.00 0.00 81 1009.5
20260903163024 80 129 1.0 3.0 0.00 0.00 0.00 79 1009.6
20260903162519 79 206 0.0 4.0 0.00 0.00 0.00 78 1009.3
20260903162013 79 212 1.0 5.0 0.00 0.00 0.00 78 1009.8
20260903161507 79 143 0.0 5.0 0.00 0.00 0.00 78 1010.2
20260903161001 79 149 0.0 1.0 0.00 0.00 0.00 77 1010.5
20260903160455 79 124 1.0 4.0 0.00 0.00 0.00 77 1010.6
20260903155950 79 177 1.0 4.0 0.00 0.00 0.00 78 1010.4
20260903155443 79 263 1.0 5.0 0.00 0.00 0.00 78 1010.3
20260903154936 79 240 2.0 7.0 0.00 0.00 0.00 77 1010.4
20260903154430 79 301 1.0 7.0 0.00 0.00 0.00 78 1010.1
20260903153924 79 217 1.0 3.0 0.00 0.00 0.00 76 1009.9
20260903153647 80 216 1.0 3.0 0.00 0.00 0.00 73 1009.8
20260903152913 79 224 0.0 3.0 0.00 0.00 0.00 71 1009.8
20260903152632 79 345 1.0 4.0 0.00 0.00 0.00 70 1009.7
20260903151900 79 219 1.0 4.0 0.00 0.00 0.00 70 1009.6
20260903151353 78 226 1.0 4.0 0.00 0.00 0.00 72 1009.7
20260903150847 79 200 0.0 2.0 0.00 0.00 0.00 70 1009.7
20260903150341 79 176 1.0 4.0 0.00 0.00 0.00 69 1009.7
20260903145839 78 227 1.0 4.0 0.00 0.00 0.00 70 1009.7
20260903145330 79 194 0.0 2.0 0.00 0.00 0.00 68 1009.6
20260903144823 79 196 0.0 2.0 0.00 0.00 0.00 67 1009.6
20260903144316 78 252 0.0 3.0 0.00 0.00 0.00 67 1009.4
20260903143810 78 217 0.0 3.0 0.00 0.00 0.00 68 1009.5
20260903143523 78 257 0.0 2.0 0.00 0.00 0.00 68 1009.4
20260903143027 78 226 0.0 2.0 0.00 0.00 0.00 68 1009.5
20260903142253 78 226 0.0 2.0 0.00 0.00 0.00 68 1009.5
20260903141746 78 217 0.0 1.0 0.00 0.00 0.00 68 1009.1
20260903141242 78 217 0.0 1.0 0.00 0.00 0.00 68 1009.0
20260903140735 78 216 0.0 1.0 0.00 0.00 0.00 68 1009.2
20260903140230 78 217 0.0 1.0 0.00 0.00 0.00 68 1009.1
20260903135723 78 216 0.0 0.0 0.00 0.00 0.00 68 1009.0
20260903135437 78 217 0.0 2.0 0.00 0.00 0.00 68 1008.6
20260903134711 78 217 0.0 2.0 0.00 0.00 0.00 68 1008.9
20260903134205 78 238 0.0 1.0 0.00 0.00 0.00 69 1009.0
20260903133700 78 240 0.0 1.0 0.00 0.00 0.00 69 1009.1
20260903133153 77 240 0.0 1.0 0.00 0.00 0.00 69 1009.6
20260903132647 77 230 0.0 1.0 0.00 0.00 0.00 69 1009.7
20260903132141 77 264 0.0 1.0 0.00 0.00 0.00 70 1009.9
20260903131900 77 232 0.0 1.0 0.00 0.00 0.00 70 1009.8
20260903131140 77 82 0.0 0.0 0.00 0.00 0.00 70 1009.8
20260903130641 77 82 0.0 0.0 0.00 0.00 0.00 70 1009.9
20260903130140 76 82 0.0 0.0 0.00 0.00 0.00 70 1010.1
20260903125641 76 82 0.0 0.0 0.00 0.00 0.00 70 1010.3
20260903125140 76 82 0.0 0.0 0.00 0.00 0.00 71 1010.3
20260903124639 76 82 0.0 0.0 0.00 0.00 0.00 71 1010.6
20260903124137 76 82 0.0 0.0 0.00 0.00 0.00 71 1010.7
20260903123854 76 82 0.0 0.0 0.00 0.00 0.00 71 1010.7
20260903123137 75 82 0.0 0.0 0.00 0.00 0.00 71 1010.6
20260903122637 75 82 0.0 0.0 0.00 0.00 0.00 71 1010.7
20260903122136 75 82 0.0 0.0 0.00 0.00 0.00 71 1010.9
20260903121637 75 82 0.0 0.0 0.00 0.00 0.00 71 1011.0
20260903121137 75 82 0.0 0.0 0.00 0.00 0.00 71 1011.0
20260903120637 74 82 0.0 1.0 0.00 0.00 0.00 71 1011.0
20260903120135 74 82 0.0 2.0 0.00 0.00 0.00 71 1011.0
20260903115633 74 82 1.0 3.0 0.00 0.00 0.00 71 1011.0
20260903115133 74 82 0.0 3.0 0.00 0.00 0.00 71 1011.1
20260903114627 74 87 0.0 1.0 0.00 0.00 0.00 71 1011.1
20260903114122 74 87 0.0 1.0 0.00 0.00 0.00 71 1010.9
20260903113615 74 87 0.0 1.0 0.00 0.00 0.00 71 1010.7
20260903113109 74 87 0.0 1.0 0.00 0.00 0.00 71 1010.7
20260903112603 74 87 0.0 1.0 0.00 0.00 0.00 72 1010.8
20260903112317 74 87 0.0 1.0 0.00 0.00 0.00 72 1010.7
20260903111553 74 87 0.0 1.0 0.00 0.00 0.00 72 1010.4
20260903111045 74 47 1.0 3.0 0.00 0.00 0.00 72 1010.2
20260903110539 74 76 1.0 3.0 0.00 0.00 0.00 72 1010.2
20260903110033 74 95 1.0 3.0 0.00 0.00 0.00 72 1010.1
20260903105527 74 84 1.0 3.0 0.00 0.00 0.00 72 1010.1
20260903105022 73 86 1.0 6.0 0.00 0.00 0.00 72 1009.9
20260903104515 73 74 1.0 6.0 0.00 0.00 0.00 72 1009.8
20260903103727 71 76 0.0 0.0 0.00 0.00 0.00 72 1009.3
20260903102957 71 76 0.0 0.0 0.00 0.00 0.00 71 1009.0
20260903102452 71 76 0.0 0.0 0.00 0.00 0.00 71 1008.7
20260903101945 71 76 0.0 0.0 0.00 0.00 0.00 72 1008.7
20260903101439 71 76 0.0 0.0 0.00 0.00 0.00 72 1008.8
20260903100933 72 76 0.0 0.0 0.00 0.00 0.00 71 1008.8
20260903100427 72 76 0.0 0.0 0.00 0.00 0.00 71 1008.9
20260903095923 72 76 0.0 0.0 0.00 0.00 0.00 71 1009.0
20260903095415 72 76 0.0 0.0 0.00 0.00 0.00 71 1009.1
20260903094909 72 76 0.0 0.0 0.00 0.00 0.00 71 1009.3
20260903094403 72 76 0.0 0.0 0.00 0.00 0.00 71 1009.2
20260903093857 72 76 0.0 0.0 0.00 0.00 0.00 71 1009.3
20260903093613 72 76 0.0 0.0 0.00 0.00 0.00 71 1009.4
20260903092845 72 76 0.0 0.0 0.00 0.00 0.00 71 1009.4
20260903092339 72 76 0.0 0.0 0.00 0.00 0.00 71 1009.4
20260903091833 72 76 0.0 0.0 0.00 0.00 0.00 71 1009.4
20260903090823 72 76 0.0 0.0 0.00 0.00 0.00 71 1009.4
20260903090316 72 76 0.0 0.0 0.00 0.00 0.00 71 1009.3
20260903085810 72 76 0.0 0.0 0.00 0.00 0.00 71 1009.5
20260903085305 72 76 0.0 2.0 0.00 0.00 0.00 71 1009.5
20260903085025 72 76 1.0 3.0 0.00 0.00 0.00 71 1009.5
20260903084252 72 82 0.0 3.0 0.00 0.00 0.00 71 1009.6
20260903084006 72 68 0.0 0.0 0.00 0.00 0.00 71 1009.6
20260903083240 72 68 0.0 1.0 0.00 0.00 0.00 71 1009.3
20260903082734 72 68 0.0 1.0 0.00 0.00 0.00 71 1009.3
20260903082227 72 68 0.0 0.0 0.00 0.00 0.00 71 1009.2
20260903081723 72 68 0.0 0.0 0.00 0.00 0.00 71 1009.1
20260903081215 72 68 0.0 1.0 0.00 0.00 0.00 71 1009.1
20260903080935 72 68 0.0 1.0 0.00 0.00 0.00 71 1009.1
20260903080203 72 68 0.0 0.0 0.00 0.00 0.00 71 1009.0
20260903075657 72 68 0.0 0.0 0.00 0.00 0.00 72 1009.1
20260903075152 72 68 0.0 0.0 0.00 0.00 0.00 72 1009.2
20260903074645 72 68 0.0 0.0 0.00 0.00 0.00 71 1009.3
20260903074139 72 68 0.0 0.0 0.00 0.00 0.00 71 1009.3
20260903073633 71 68 0.0 0.0 0.00 0.00 0.00 71 1009.3
20260903073347 71 68 0.0 0.0 0.00 0.00 0.00 71 1009.4
20260903072622 72 68 0.0 0.0 0.00 0.00 0.00 71 1009.3
20260903072123 72 68 0.0 0.0 0.00 0.00 0.00 71 1009.2
20260903071621 72 68 0.0 0.0 0.00 0.00 0.00 71 1009.0
20260903071120 72 68 0.0 0.0 0.00 0.00 0.00 71 1008.9
20260903070619 72 68 0.0 0.0 0.00 0.00 0.00 71 1009.0
20260903070344 72 68 0.0 0.0 0.00 0.00 0.00 71 1009.0
20260903065617 72 68 0.0 0.0 0.00 0.00 0.00 71 1009.1
20260903065114 72 68 0.0 0.0 0.00 0.00 0.00 71 1009.2
20260903064615 72 68 0.0 0.0 0.00 0.00 0.00 71 1009.2
20260903064114 72 68 0.0 0.0 0.00 0.00 0.00 71 1009.3
20260903063615 72 68 0.0 0.0 0.00 0.00 0.00 71 1009.3
20260903063113 72 68 0.0 0.0 0.00 0.00 0.00 71 1009.2
20260903062611 72 68 0.0 0.0 0.00 0.00 0.00 71 1009.3
20260903062110 72 68 0.0 0.0 0.00 0.00 0.00 71 1009.2
20260903061610 72 68 0.0 0.0 0.00 0.00 0.00 71 1009.0
20260903061104 72 68 0.0 0.0 0.00 0.00 0.00 71 1009.0
20260903060604 72 68 0.0 0.0 0.00 0.00 0.00 71 1009.1
20260903060104 72 68 0.0 0.0 0.00 0.00 0.00 71 1009.3
20260903055604 72 68 0.0 0.0 0.00 0.00 0.00 71 1009.4
20260903055104 71 68 0.0 0.0 0.00 0.00 0.00 71 1009.5
20260903054604 71 68 0.0 0.0 0.00 0.00 0.00 71 1009.7
20260903054105 71 68 0.0 0.0 0.00 0.00 0.00 71 1009.6
20260903053604 71 68 0.0 0.0 0.00 0.00 0.00 71 1009.6
20260903053105 71 68 0.0 0.0 0.00 0.00 0.00 71 1009.6
20260903052600 71 68 0.0 0.0 0.00 0.00 0.00 71 1009.5
20260903052323 71 68 0.0 0.0 0.00 0.00 0.00 71 1009.5
20260903051601 71 68 0.0 0.0 0.00 0.00 0.00 71 1009.5
20260903051325 71 68 0.0 0.0 0.00 0.00 0.00 71 1009.6
20260903050600 71 68 0.0 0.0 0.00 0.00 0.00 71 1009.6
20260903050101 71 68 0.0 0.0 0.00 0.00 0.00 71 1009.6
20260903045601 71 68 0.0 0.0 0.00 0.00 0.00 71 1009.6
20260903045101 71 68 0.0 0.0 0.00 0.00 0.00 71 1009.6
20260903044825 71 68 0.0 0.0 0.00 0.00 0.00 71 1009.7
20260903044056 71 68 0.0 0.0 0.00 0.00 0.00 71 1009.7
20260903043556 71 68 0.0 0.0 0.00 0.00 0.00 71 1009.8
20260903043056 71 68 0.0 0.0 0.00 0.00 0.00 71 1009.8
20260903042820 71 68 0.0 0.0 0.00 0.00 0.00 71 1009.9
20260903042056 71 68 0.0 0.0 0.00 0.00 0.00 71 1009.8
20260903041558 71 68 0.0 0.0 0.00 0.00 0.00 71 1009.9
20260903041059 71 68 0.0 0.0 0.00 0.00 0.00 71 1010.0
20260903040559 71 68 0.0 0.0 0.00 0.00 0.00 71 1010.0
20260903040059 71 68 0.0 0.0 0.00 0.00 0.00 71 1009.9
20260903035553 71 68 0.0 0.0 0.00 0.00 0.00 71 1009.8
20260903035306 71 68 0.0 0.0 0.00 0.00 0.00 71 1009.8
20260903034540 71 68 0.0 0.0 0.00 0.00 0.00 71 1009.9
20260903034300 71 68 0.0 0.0 0.00 0.00 0.00 71 1009.9
20260903033529 71 68 0.0 0.0 0.00 0.00 0.00 71 1010.0
20260903033022 71 68 0.0 0.0 0.00 0.00 0.00 71 1010.0
20260903032517 71 68 0.0 0.0 0.00 0.00 0.00 71 1010.0
20260903032010 71 68 0.0 0.0 0.00 0.00 0.00 71 1010.1
20260903031504 71 68 0.0 0.0 0.00 0.00 0.00 71 1010.0
20260903030958 71 68 0.0 0.0 0.00 0.00 0.00 71 1010.0
20260903030452 71 68 0.0 0.0 0.00 0.00 0.00 71 1010.1
20260903025946 71 68 0.0 0.0 0.00 0.00 0.00 71 1010.0
20260903025704 71 68 0.0 0.0 0.00 0.00 0.00 71 1010.1
20260903024934 71 68 0.0 0.0 0.00 0.00 0.00 71 1010.3
20260903024428 71 68 0.0 0.0 0.00 0.00 0.00 71 1010.3
20260903024145 71 68 0.0 0.0 0.00 0.00 0.00 71 1010.3
20260903023416 71 68 0.0 0.0 0.00 0.00 0.00 71 1010.2
20260903022910 71 68 0.0 0.0 0.00 0.00 0.00 71 1010.2
20260903022404 71 68 0.0 0.0 0.00 0.00 0.00 71 1010.1
20260903021858 71 68 0.0 0.0 0.00 0.00 0.00 71 1010.1
20260903021352 71 68 0.0 0.0 0.00 0.00 0.00 71 1010.1
20260903020846 71 68 0.0 0.0 0.00 0.00 0.00 71 1010.1
20260903020340 71 68 0.0 0.0 0.00 0.00 0.00 71 1010.1
20260903015834 71 68 0.0 1.0 0.00 0.00 0.00 71 1010.0
20260903015328 71 68 0.0 2.0 0.00 0.00 0.00 71 1010.2
20260903014823 71 68 0.0 2.0 0.00 0.00 0.00 71 1010.1
20260903014316 71 75 0.0 0.0 0.00 0.00 0.00 72 1010.1
20260903014032 71 76 0.0 0.0 0.00 0.00 0.00 72 1010.1
20260903013304 71 76 0.0 0.0 0.00 0.00 0.00 71 1010.0
20260903013021 71 75 0.0 0.0 0.00 0.00 0.00 71 1009.9
20260903012253 71 75 0.0 0.0 0.00 0.00 0.00 72 1010.0
20260903012015 71 75 0.0 0.0 0.00 0.00 0.00 71 1010.1